| time (UTC) | temp F | wind direction | speed MPH | gust MPH | rain 1hr in | rain 24hr in | rain mn in | humidity % | barometer mb |
| 20260505003702 | 70 | 173 | 2.0 | 3.0 | 0.00 | 0.00 | 0.00 | 64 | 1013.0 |
| 20260505003159 | 71 | 201 | 1.0 | 2.0 | 0.00 | 0.00 | 0.00 | 63 | 1012.5 |
| 20260505002655 | 71 | 196 | 2.0 | 3.0 | 0.00 | 0.00 | 0.00 | 62 | 1012.5 |
| 20260505002153 | 71 | 197 | 3.0 | 3.0 | 0.00 | 0.00 | 0.00 | 61 | 1012.7 |
| 20260505001650 | 72 | 168 | 2.0 | 3.0 | 0.00 | 0.00 | 0.00 | 60 | 1012.5 |
| 20260505001148 | 72 | 178 | 2.0 | 2.0 | 0.00 | 0.00 | 0.00 | 59 | 1012.7 |
| 20260505000644 | 73 | 182 | 2.0 | 3.0 | 0.00 | 0.00 | 0.00 | 57 | 1012.8 |
| 20260505000142 | 73 | 219 | 3.0 | 3.0 | 0.00 | 0.00 | 0.00 | 56 | 1013.0 |
| 20260504235638 | 73 | 247 | 2.0 | 3.0 | 0.00 | 0.00 | 0.00 | 55 | 1012.9 |
| 20260504235135 | 74 | 171 | 4.0 | 5.0 | 0.00 | 0.00 | 0.00 | 54 | 1012.8 |
| 20260504234632 | 74 | 212 | 2.0 | 2.0 | 0.00 | 0.00 | 0.00 | 54 | 1012.7 |
| 20260504234130 | 74 | 188 | 2.0 | 2.0 | 0.00 | 0.00 | 0.00 | 53 | 1012.9 |
| 20260504233625 | 74 | 174 | 2.0 | 2.0 | 0.00 | 0.00 | 0.00 | 52 | 1012.6 |
| 20260504233121 | 74 | 145 | 2.0 | 3.0 | 0.00 | 0.00 | 0.00 | 51 | 1012.9 |
| 20260504232619 | 74 | 159 | 1.0 | 3.0 | 0.00 | 0.00 | 0.00 | 50 | 1012.9 |
| 20260504232116 | 75 | 222 | 3.0 | 3.0 | 0.00 | 0.00 | 0.00 | 48 | 1012.9 |
| 20260504231613 | 75 | 181 | 4.0 | 5.0 | 0.00 | 0.00 | 0.00 | 48 | 1012.9 |
| 20260504231109 | 75 | 180 | 3.0 | 5.0 | 0.00 | 0.00 | 0.00 | 48 | 1013.0 |
| 20260504230605 | 75 | 183 | 2.0 | 5.0 | 0.00 | 0.00 | 0.00 | 48 | 1012.9 |
| 20260504230104 | 76 | 216 | 3.0 | 3.0 | 0.00 | 0.00 | 0.00 | 48 | 1013.0 |
| 20260504225601 | 76 | 223 | 3.0 | 3.0 | 0.00 | 0.00 | 0.00 | 46 | 1013.1 |
| 20260504225058 | 76 | 157 | 2.0 | 3.0 | 0.00 | 0.00 | 0.00 | 47 | 1013.2 |
| 20260504224554 | 76 | 199 | 4.0 | 6.0 | 0.00 | 0.00 | 0.00 | 46 | 1013.2 |
| 20260504224052 | 76 | 349 | 1.0 | 5.0 | 0.00 | 0.00 | 0.00 | 46 | 1013.3 |
| 20260504223549 | 76 | 164 | 3.0 | 3.0 | 0.00 | 0.00 | 0.00 | 46 | 1013.0 |
| 20260504223044 | 77 | 246 | 3.0 | 5.0 | 0.00 | 0.00 | 0.00 | 44 | 1013.4 |
| 20260504222541 | 77 | 263 | 1.0 | 5.0 | 0.00 | 0.00 | 0.00 | 44 | 1013.2 |
| 20260504222039 | 77 | 270 | 2.0 | 3.0 | 0.00 | 0.00 | 0.00 | 45 | 1013.2 |
| 20260504221536 | 77 | 281 | 1.0 | 2.0 | 0.00 | 0.00 | 0.00 | 43 | 1013.5 |
| 20260504221032 | 77 | 254 | 1.0 | 2.0 | 0.00 | 0.00 | 0.00 | 46 | 1013.2 |
| 20260504220529 | 77 | 236 | 3.0 | 3.0 | 0.00 | 0.00 | 0.00 | 44 | 1013.4 |
| 20260504220026 | 77 | 169 | 3.0 | 3.0 | 0.00 | 0.00 | 0.00 | 43 | 1013.8 |
| 20260504215522 | 77 | 269 | 2.0 | 3.0 | 0.00 | 0.00 | 0.00 | 43 | 1013.6 |
| 20260504215020 | 76 | 191 | 2.0 | 3.0 | 0.00 | 0.00 | 0.00 | 44 | 1013.3 |
| 20260504214516 | 77 | 208 | 2.0 | 2.0 | 0.00 | 0.00 | 0.00 | 43 | 1013.6 |
| 20260504214012 | 77 | 188 | 2.0 | 5.0 | 0.00 | 0.00 | 0.00 | 43 | 1013.6 |
| 20260504213509 | 78 | 221 | 1.0 | 2.0 | 0.00 | 0.00 | 0.00 | 43 | 1013.5 |
| 20260504213006 | 78 | 308 | 1.0 | 2.0 | 0.00 | 0.00 | 0.00 | 45 | 1013.5 |
| 20260504212502 | 78 | 273 | 2.0 | 6.0 | 0.00 | 0.00 | 0.00 | 46 | 1013.6 |
| 20260504212000 | 79 | 257 | 3.0 | 3.0 | 0.00 | 0.00 | 0.00 | 45 | 1013.7 |
| 20260504211456 | 79 | 252 | 2.0 | 3.0 | 0.00 | 0.00 | 0.00 | 45 | 1013.6 |
| 20260504210953 | 78 | 183 | 1.0 | 2.0 | 0.00 | 0.00 | 0.00 | 45 | 1013.7 |
| 20260504210450 | 79 | 305 | 1.0 | 3.0 | 0.00 | 0.00 | 0.00 | 44 | 1014.0 |
| 20260504205947 | 79 | 222 | 2.0 | 3.0 | 0.00 | 0.00 | 0.00 | 46 | 1013.9 |
| 20260504205444 | 80 | 291 | 1.0 | 2.0 | 0.00 | 0.00 | 0.00 | 46 | 1013.8 |
| 20260504204943 | 79 | 258 | 2.0 | 5.0 | 0.00 | 0.00 | 0.00 | 46 | 1013.8 |
| 20260504204441 | 79 | 181 | 2.0 | 2.0 | 0.00 | 0.00 | 0.00 | 43 | 1013.8 |
| 20260504203940 | 79 | 264 | 1.0 | 5.0 | 0.00 | 0.00 | 0.00 | 44 | 1014.0 |
| 20260504203437 | 79 | 271 | 1.0 | 5.0 | 0.00 | 0.00 | 0.00 | 47 | 1014.1 |
| 20260504202933 | 79 | 198 | 1.0 | 3.0 | 0.00 | 0.00 | 0.00 | 45 | 1014.1 |
| 20260504202429 | 78 | 245 | 3.0 | 3.0 | 0.00 | 0.00 | 0.00 | 47 | 1014.2 |
| 20260504201926 | 79 | 143 | 2.0 | 3.0 | 0.00 | 0.00 | 0.00 | 45 | 1014.3 |
| 20260504201424 | 79 | 297 | 2.0 | 5.0 | 0.00 | 0.00 | 0.00 | 44 | 1014.2 |
| 20260504200921 | 79 | 275 | 3.0 | 3.0 | 0.00 | 0.00 | 0.00 | 44 | 1014.3 |
| 20260504200418 | 78 | 263 | 3.0 | 7.0 | 0.00 | 0.00 | 0.00 | 46 | 1014.4 |
| 20260504195915 | 78 | 289 | 3.0 | 5.0 | 0.00 | 0.00 | 0.00 | 47 | 1014.7 |
| 20260504195410 | 79 | 229 | 2.0 | 6.0 | 0.00 | 0.00 | 0.00 | 44 | 1014.9 |
| 20260504194907 | 79 | 285 | 1.0 | 3.0 | 0.00 | 0.00 | 0.00 | 47 | 1015.0 |
| 20260504194403 | 79 | 219 | 1.0 | 3.0 | 0.00 | 0.00 | 0.00 | 47 | 1014.9 |
| 20260504193859 | 78 | 205 | 2.0 | 3.0 | 0.00 | 0.00 | 0.00 | 46 | 1015.1 |
| 20260504193356 | 79 | 269 | 3.0 | 3.0 | 0.00 | 0.00 | 0.00 | 44 | 1015.3 |
| 20260504192855 | 79 | 272 | 4.0 | 6.0 | 0.00 | 0.00 | 0.00 | 45 | 1015.2 |
| 20260504192352 | 78 | 270 | 2.0 | 3.0 | 0.00 | 0.00 | 0.00 | 44 | 1015.4 |
| 20260504191850 | 79 | 177 | 3.0 | 5.0 | 0.00 | 0.00 | 0.00 | 45 | 1015.5 |
| 20260504191348 | 79 | 262 | 3.0 | 6.0 | 0.00 | 0.00 | 0.00 | 45 | 1015.4 |
| 20260504190843 | 79 | 324 | 1.0 | 3.0 | 0.00 | 0.00 | 0.00 | 46 | 1015.4 |
| 20260504190339 | 79 | 219 | 1.0 | 2.0 | 0.00 | 0.00 | 0.00 | 47 | 1015.5 |
| 20260504185836 | 78 | 302 | 1.0 | 2.0 | 0.00 | 0.00 | 0.00 | 48 | 1015.4 |
| 20260504185333 | 78 | 307 | 2.0 | 3.0 | 0.00 | 0.00 | 0.00 | 46 | 1015.5 |
| 20260504184829 | 78 | 300 | 2.0 | 3.0 | 0.00 | 0.00 | 0.00 | 47 | 1015.3 |
| 20260504184325 | 78 | 134 | 3.0 | 6.0 | 0.00 | 0.00 | 0.00 | 48 | 1015.8 |
| 20260504183821 | 78 | 318 | 1.0 | 3.0 | 0.00 | 0.00 | 0.00 | 45 | 1015.7 |
| 20260504183319 | 78 | 292 | 2.0 | 3.0 | 0.00 | 0.00 | 0.00 | 48 | 1015.8 |
| 20260504182816 | 79 | 313 | 1.0 | 5.0 | 0.00 | 0.00 | 0.00 | 47 | 1015.8 |
| 20260504182314 | 78 | 294 | 2.0 | 3.0 | 0.00 | 0.00 | 0.00 | 49 | 1015.9 |
| 20260504181810 | 77 | 10 | 0.0 | 2.0 | 0.00 | 0.00 | 0.00 | 50 | 1016.1 |
| 20260504181308 | 78 | 304 | 2.0 | 2.0 | 0.00 | 0.00 | 0.00 | 45 | 1016.2 |
| 20260504180807 | 77 | 272 | 4.0 | 7.0 | 0.00 | 0.00 | 0.00 | 47 | 1016.2 |
| 20260504180305 | 77 | 307 | 3.0 | 3.0 | 0.00 | 0.00 | 0.00 | 49 | 1016.3 |
| 20260504175803 | 77 | 304 | 2.0 | 3.0 | 0.00 | 0.00 | 0.00 | 47 | 1016.4 |
| 20260504175259 | 78 | 224 | 3.0 | 3.0 | 0.00 | 0.00 | 0.00 | 46 | 1016.4 |
| 20260504174757 | 78 | 293 | 2.0 | 3.0 | 0.00 | 0.00 | 0.00 | 47 | 1016.4 |
| 20260504174255 | 77 | 288 | 2.0 | 3.0 | 0.00 | 0.00 | 0.00 | 50 | 1016.4 |
| 20260504173751 | 77 | 141 | 3.0 | 3.0 | 0.00 | 0.00 | 0.00 | 46 | 1016.3 |
| 20260504173248 | 76 | 216 | 2.0 | 5.0 | 0.00 | 0.00 | 0.00 | 49 | 1016.4 |
| 20260504172745 | 76 | 106 | 3.0 | 6.0 | 0.00 | 0.00 | 0.00 | 50 | 1016.6 |
| 20260504172241 | 77 | 205 | 2.0 | 2.0 | 0.00 | 0.00 | 0.00 | 46 | 1016.7 |
| 20260504171737 | 78 | 308 | 2.0 | 3.0 | 0.00 | 0.00 | 0.00 | 45 | 1016.4 |
| 20260504171235 | 77 | 20 | 1.0 | 1.0 | 0.00 | 0.00 | 0.00 | 47 | 1016.4 |
| 20260504170732 | 77 | 305 | 2.0 | 2.0 | 0.00 | 0.00 | 0.00 | 48 | 1016.5 |
| 20260504170229 | 77 | 278 | 2.0 | 6.0 | 0.00 | 0.00 | 0.00 | 45 | 1016.5 |
| 20260504160147 | 76 | 164 | 3.0 | 5.0 | 0.00 | 0.00 | 0.00 | 47 | 1016.9 |
| 20260504151115 | 74 | 74 | 1.0 | 3.0 | 0.00 | 0.00 | 0.00 | 47 | 1017.1 |
| 20260504150612 | 75 | 289 | 2.0 | 3.0 | 0.00 | 0.00 | 0.00 | 55 | 1017.0 |
| 20260504150109 | 74 | 295 | 1.0 | 3.0 | 0.00 | 0.00 | 0.00 | 59 | 1017.0 |
| 20260504141038 | 70 | 317 | 1.0 | 1.0 | 0.00 | 0.00 | 0.00 | 67 | 1017.4 |
| 20260504140534 | 69 | 307 | 1.0 | 1.0 | 0.00 | 0.00 | 0.00 | 68 | 1017.2 |
| 20260504130459 | 65 | 41 | 1.0 | 1.0 | 0.00 | 0.00 | 0.00 | 80 | 1017.2 |
| 20260504110340 | 53 | 11 | 0.0 | 0.0 | 0.00 | 0.00 | 0.00 | 91 | 1016.3 |
| 20260504100258 | 53 | 12 | 0.0 | 0.0 | 0.00 | 0.00 | 0.00 | 90 | 1016.6 |
| 20260504081651 | 54 | 5 | 0.0 | 0.0 | 0.00 | 0.00 | 0.00 | 89 | 1016.7 |
| 20260504081147 | 54 | 5 | 0.0 | 0.0 | 0.00 | 0.00 | 0.00 | 88 | 1016.7 |
| 20260504080644 | 55 | 5 | 0.0 | 0.0 | 0.00 | 0.00 | 0.00 | 88 | 1016.8 |
| 20260504080140 | 55 | 5 | 0.0 | 0.0 | 0.00 | 0.00 | 0.00 | 88 | 1016.6 |
| 20260504070108 | 58 | 320 | 1.0 | 1.0 | 0.00 | 0.00 | 0.00 | 84 | 1017.1 |
| 20260504050456 | 61 | 320 | 0.0 | 0.0 | 0.00 | 0.00 | 0.00 | 77 | 1018.2 |
| 20260504045954 | 61 | 320 | 0.0 | 0.0 | 0.00 | 0.00 | 0.00 | 76 | 1018.1 |
| 20260504045449 | 62 | 320 | 0.0 | 1.0 | 0.00 | 0.00 | 0.00 | 75 | 1018.0 |
| 20260504044946 | 62 | 320 | 0.0 | 1.0 | 0.00 | 0.00 | 0.00 | 74 | 1018.2 |
| 20260504044443 | 62 | 320 | 1.0 | 1.0 | 0.00 | 0.00 | 0.00 | 73 | 1018.3 |
| 20260504043941 | 62 | 320 | 1.0 | 1.0 | 0.00 | 0.00 | 0.00 | 73 | 1018.4 |
| 20260504043437 | 62 | 320 | 0.0 | 1.0 | 0.00 | 0.00 | 0.00 | 73 | 1018.5 |
| 20260504042935 | 62 | 321 | 0.0 | 1.0 | 0.00 | 0.00 | 0.00 | 73 | 1018.0 |
| 20260504042431 | 63 | 320 | 0.0 | 1.0 | 0.00 | 0.00 | 0.00 | 72 | 1018.2 |
| 20260504041928 | 63 | 320 | 1.0 | 1.0 | 0.00 | 0.00 | 0.00 | 72 | 1018.3 |
| 20260504041424 | 63 | 321 | 0.0 | 1.0 | 0.00 | 0.00 | 0.00 | 71 | 1018.3 |
| 20260504040920 | 64 | 321 | 1.0 | 1.0 | 0.00 | 0.00 | 0.00 | 70 | 1018.3 |
| 20260504040418 | 64 | 321 | 0.0 | 1.0 | 0.00 | 0.00 | 0.00 | 70 | 1018.3 |
| 20260504035914 | 64 | 322 | 1.0 | 1.0 | 0.00 | 0.00 | 0.00 | 69 | 1018.5 |
| 20260504035412 | 64 | 296 | 1.0 | 2.0 | 0.00 | 0.00 | 0.00 | 68 | 1018.4 |
| 20260504034908 | 64 | 307 | 1.0 | 2.0 | 0.00 | 0.00 | 0.00 | 69 | 1018.6 |
| 20260504034406 | 64 | 313 | 1.0 | 2.0 | 0.00 | 0.00 | 0.00 | 70 | 1018.7 |
| 20260504033903 | 64 | 312 | 1.0 | 2.0 | 0.00 | 0.00 | 0.00 | 71 | 1018.5 |
| 20260504033400 | 64 | 312 | 1.0 | 2.0 | 0.00 | 0.00 | 0.00 | 70 | 1018.4 |
| 20260504032857 | 64 | 316 | 2.0 | 2.0 | 0.00 | 0.00 | 0.00 | 69 | 1018.3 |
| 20260504032354 | 64 | 258 | 1.0 | 2.0 | 0.00 | 0.00 | 0.00 | 69 | 1018.6 |
| 20260504031850 | 65 | 309 | 1.0 | 1.0 | 0.00 | 0.00 | 0.00 | 68 | 1018.6 |
| 20260504031348 | 65 | 302 | 1.0 | 1.0 | 0.00 | 0.00 | 0.00 | 67 | 1018.5 |
| 20260504030844 | 65 | 308 | 1.0 | 1.0 | 0.00 | 0.00 | 0.00 | 68 | 1018.4 |
| 20260504030342 | 65 | 299 | 1.0 | 1.0 | 0.00 | 0.00 | 0.00 | 68 | 1018.3 |
| 20260504025837 | 65 | 313 | 1.0 | 2.0 | 0.00 | 0.00 | 0.00 | 68 | 1018.4 |
| 20260504025335 | 65 | 303 | 1.0 | 2.0 | 0.00 | 0.00 | 0.00 | 69 | 1018.4 |
| 20260504024831 | 65 | 319 | 1.0 | 2.0 | 0.00 | 0.00 | 0.00 | 70 | 1018.4 |
| 20260504024328 | 65 | 308 | 1.0 | 2.0 | 0.00 | 0.00 | 0.00 | 69 | 1018.3 |
| 20260504023824 | 65 | 184 | 0.0 | 1.0 | 0.00 | 0.00 | 0.00 | 67 | 1018.4 |
| 20260504023321 | 66 | 306 | 1.0 | 1.0 | 0.00 | 0.00 | 0.00 | 65 | 1018.3 |
| 20260504022817 | 66 | 324 | 1.0 | 1.0 | 0.00 | 0.00 | 0.00 | 66 | 1018.2 |
| 20260504022314 | 66 | 309 | 1.0 | 1.0 | 0.00 | 0.00 | 0.00 | 65 | 1018.2 |
| 20260504021810 | 66 | 286 | 1.0 | 2.0 | 0.00 | 0.00 | 0.00 | 64 | 1018.2 |
| 20260504021308 | 66 | 319 | 0.0 | 1.0 | 0.00 | 0.00 | 0.00 | 64 | 1018.1 |
| 20260504020805 | 66 | 230 | 1.0 | 1.0 | 0.00 | 0.00 | 0.00 | 64 | 1018.1 |
| 20260504020302 | 65 | 308 | 1.0 | 1.0 | 0.00 | 0.00 | 0.00 | 67 | 1018.0 |
| 20260504015757 | 66 | 342 | 0.0 | 1.0 | 0.00 | 0.00 | 0.00 | 69 | 1017.8 |
| 20260504015254 | 66 | 341 | 1.0 | 1.0 | 0.00 | 0.00 | 0.00 | 69 | 1017.9 |
| 20260504014750 | 66 | 338 | 0.0 | 0.0 | 0.00 | 0.00 | 0.00 | 68 | 1017.8 |
| 20260504014246 | 66 | 336 | 0.0 | 1.0 | 0.00 | 0.00 | 0.00 | 66 | 1017.7 |
| 20260504013744 | 66 | 336 | 0.0 | 1.0 | 0.00 | 0.00 | 0.00 | 64 | 1017.6 |
| 20260504013242 | 66 | 341 | 0.0 | 0.0 | 0.00 | 0.00 | 0.00 | 63 | 1017.7 |
| 20260504012738 | 67 | 339 | 0.0 | 0.0 | 0.00 | 0.00 | 0.00 | 63 | 1017.4 |
| 20260504012236 | 68 | 338 | 0.0 | 0.0 | 0.00 | 0.00 | 0.00 | 62 | 1017.5 |
| 20260504011732 | 68 | 336 | 0.0 | 0.0 | 0.00 | 0.00 | 0.00 | 60 | 1017.2 |
| 20260504011229 | 68 | 328 | 0.0 | 1.0 | 0.00 | 0.00 | 0.00 | 58 | 1017.5 |
| 20260504010726 | 68 | 328 | 0.0 | 1.0 | 0.00 | 0.00 | 0.00 | 58 | 1017.3 |
| 20260504010221 | 69 | 328 | 0.0 | 1.0 | 0.00 | 0.00 | 0.00 | 56 | 1017.3 |
| 20260504005718 | 69 | 328 | 0.0 | 1.0 | 0.00 | 0.00 | 0.00 | 55 | 1017.3 |
| 20260504005215 | 70 | 328 | 0.0 | 1.0 | 0.00 | 0.00 | 0.00 | 54 | 1017.2 |
| 20260504004713 | 70 | 328 | 0.0 | 1.0 | 0.00 | 0.00 | 0.00 | 54 | 1017.4 |
| 20260504004210 | 70 | 328 | 1.0 | 1.0 | 0.00 | 0.00 | 0.00 | 53 | 1017.0 |